owner,sensor,date,latitude,longitude,vertical_datum,direction_of_sea_water_velocity,sea_water_speed,upward_sea_water_velocity,qcFlag 
TABS,ioos:station:wmo:42051:1,2013-10-01T00:00:00Z,29.6350,-93.6417,2.0,122.8449815,6.582233663,-99999.0,'11133222,11111222,99999999' 
TABS,ioos:station:wmo:42051:1,2013-10-01T00:30:00Z,29.6350,-93.6417,2.0,269.9462808,10.75000465,-99999.0,'11111222,11111222,99999999' 
TABS,ioos:station:wmo:42051:1,2013-10-01T01:00:00Z,29.6350,-93.6417,2.0,204.0439566,4.270550316,-99999.0,'11133222,11111222,99999999' 
TABS,ioos:station:wmo:42051:1,2013-10-01T01:30:00Z,29.6350,-93.6417,2.0,333.5444599,4.691279143,-99999.0,'11133222,11111222,99999999' 
TABS,ioos:station:wmo:42051:1,2013-10-01T02:00:00Z,29.6350,-93.6417,2.0,146.7578028,6.384794437,-99999.0,'11133222,11111222,99999999' 
TABS,ioos:station:wmo:42051:1,2013-10-01T02:30:00Z,29.6350,-93.6417,2.0,326.8253638,15.42406237,-99999.0,'11111222,11111222,99999999' 
TABS,ioos:station:wmo:42051:1,2013-10-01T03:00:00Z,29.6350,-93.6417,2.0,333.2011892,12.0435626,-99999.0,'11111222,11111222,99999999' 
TABS,ioos:station:wmo:42051:1,2013-10-01T03:30:00Z,29.6350,-93.6417,2.0,169.6220874,12.65704942,-99999.0,'11111222,11111222,99999999' 
TABS,ioos:station:wmo:42051:1,2013-10-01T04:00:00Z,29.6350,-93.6417,2.0,242.9558075,1.605552864,-99999.0,'11133222,11111222,99999999' 
TABS,ioos:station:wmo:42051:1,2013-10-01T04:30:00Z,29.6350,-93.6417,2.0,219.7957626,7.718063229,-99999.0,'11133222,11111222,99999999' 
TABS,ioos:station:wmo:42051:1,2013-10-01T05:00:00Z,29.6350,-93.6417,2.0,98.83800374,6.638825197,-99999.0,'11133222,11111222,99999999' 
TABS,ioos:station:wmo:42051:1,2013-10-01T05:30:00Z,29.6350,-93.6417,2.0,114.2146214,5.997707896,-99999.0,'11133222,11111222,99999999' 
TABS,ioos:station:wmo:42051:1,2013-10-01T06:00:00Z,29.6350,-93.6417,2.0,203.2236275,11.89373785,-99999.0,'11111222,11111222,99999999' 
TABS,ioos:station:wmo:42051:1,2013-10-01T06:30:00Z,29.6350,-93.6417,2.0,94.60211071,3.2404475,-99999.0,'11133222,11111222,99999999' 
TABS,ioos:station:wmo:42051:1,2013-10-01T07:00:00Z,29.6350,-93.6417,2.0,107.9882618,14.60384196,-99999.0,'11111222,11111222,99999999' 
TABS,ioos:station:wmo:42051:1,2013-10-01T07:30:00Z,29.6350,-93.6417,2.0,85.70014723,4.001262301,-99999.0,'11133222,11111222,99999999' 
TABS,ioos:station:wmo:42051:1,2013-10-01T08:00:00Z,29.6350,-93.6417,2.0,28.96780337,2.560312481,-99999.0,'11133222,11111222,99999999' 
TABS,ioos:station:wmo:42051:1,2013-10-01T08:30:00Z,29.6350,-93.6417,2.0,65.38803115,16.92792368,-99999.0,'11111222,11111222,99999999' 
TABS,ioos:station:wmo:42051:1,2013-10-01T09:00:00Z,29.6350,-93.6417,2.0,37.20161041,6.566109959,-99999.0,'11133222,11111222,99999999' 
TABS,ioos:station:wmo:42051:1,2013-10-01T09:30:00Z,29.6350,-93.6417,2.0,344.7233503,11.53769908,-99999.0,'11111222,11111222,99999999' 
TABS,ioos:station:wmo:42051:1,2013-10-01T10:00:00Z,29.6350,-93.6417,2.0,27.66203663,9.111410429,-99999.0,'11133222,11111222,99999999' 
TABS,ioos:station:wmo:42051:1,2013-10-01T10:30:00Z,29.6350,-93.6417,2.0,80.99360492,13.22302915,-99999.0,'11111222,11111222,99999999' 
TABS,ioos:station:wmo:42051:1,2013-10-01T11:00:00Z,29.6350,-93.6417,2.0,58.86748376,6.402069978,-99999.0,'11133222,11111222,99999999' 
TABS,ioos:station:wmo:42051:1,2013-10-01T11:30:00Z,29.6350,-93.6417,2.0,23.8554434,10.31085835,-99999.0,'11111222,11111222,99999999' 
TABS,ioos:station:wmo:42051:1,2013-10-01T12:00:00Z,29.6350,-93.6417,2.0,104.4808313,20.31539564,-99999.0,'11111222,11111222,99999999' 
TABS,ioos:station:wmo:42051:1,2013-10-01T12:30:00Z,29.6350,-93.6417,2.0,66.05833638,8.403005415,-99999.0,'11133222,11111222,99999999' 
TABS,ioos:station:wmo:42051:1,2013-10-01T13:00:00Z,29.6350,-93.6417,2.0,23.80448616,19.12716393,-99999.0,'11111222,11111222,99999999' 
TABS,ioos:station:wmo:42051:1,2013-10-01T13:30:00Z,29.6350,-93.6417,2.0,18.72508868,10.6222267,-99999.0,'11111222,11111222,99999999' 
TABS,ioos:station:wmo:42051:1,2013-10-01T14:00:00Z,29.6350,-93.6417,2.0,28.75976174,12.26264653,-99999.0,'11111222,11111222,99999999' 
TABS,ioos:station:wmo:42051:1,2013-10-01T14:30:00Z,29.6350,-93.6417,2.0,35.74173184,16.65722966,-99999.0,'11111222,11111222,99999999' 
TABS,ioos:station:wmo:42051:1,2013-10-01T15:00:00Z,29.6350,-93.6417,2.0,24.44119716,16.28976673,-99999.0,'11111222,11111222,99999999' 
TABS,ioos:station:wmo:42051:1,2013-10-01T15:30:00Z,29.6350,-93.6417,2.0,339.7865086,5.093721626,-99999.0,'11133222,11111222,99999999' 
TABS,ioos:station:wmo:42051:1,2013-10-01T16:00:00Z,29.6350,-93.6417,2.0,357.5764448,3.783384728,-99999.0,'11133222,11111222,99999999' 
TABS,ioos:station:wmo:42051:1,2013-10-01T16:30:00Z,29.6350,-93.6417,2.0,316.5810033,5.383131059,-99999.0,'11133222,11111222,99999999' 
TABS,ioos:station:wmo:42051:1,2013-10-01T17:00:00Z,29.6350,-93.6417,2.0,350.1926377,9.275559282,-99999.0,'11133222,11111222,99999999' 
TABS,ioos:station:wmo:42051:1,2013-10-01T17:30:00Z,29.6350,-93.6417,2.0,251.6949892,4.171055022,-99999.0,'11133222,11111222,99999999' 
TABS,ioos:station:wmo:42051:1,2013-10-01T18:00:00Z,29.6350,-93.6417,2.0,236.7002364,6.101843984,-99999.0,'11133222,11111222,99999999' 
TABS,ioos:station:wmo:42051:1,2013-10-01T18:30:00Z,29.6350,-93.6417,2.0,257.1081748,5.826868799,-99999.0,'11133222,11111222,99999999' 
TABS,ioos:station:wmo:42051:1,2013-10-01T19:00:00Z,29.6350,-93.6417,2.0,188.9226409,4.190715929,-99999.0,'11133222,11111222,99999999' 
TABS,ioos:station:wmo:42051:1,2013-10-01T19:30:00Z,29.6350,-93.6417,2.0,316.3806665,12.9155178,-99999.0,'11111222,11111222,99999999' 
TABS,ioos:station:wmo:42051:1,2013-10-01T20:00:00Z,29.6350,-93.6417,2.0,13.66133222,1.481924425,-99999.0,'11133222,11111222,99999999' 
TABS,ioos:station:wmo:42051:1,2013-10-01T20:30:00Z,29.6350,-93.6417,2.0,88.35335076,4.872011905,-99999.0,'11133222,11111222,99999999' 
TABS,ioos:station:wmo:42051:1,2013-10-01T21:00:00Z,29.6350,-93.6417,2.0,226.3968621,0.87,-99999.0,'11133222,11111222,99999999' 
TABS,ioos:station:wmo:42051:1,2013-10-01T21:30:00Z,29.6350,-93.6417,2.0,353.6045989,7.989724651,-99999.0,'11133222,11111222,99999999' 
TABS,ioos:station:wmo:42051:1,2013-10-01T22:00:00Z,29.6350,-93.6417,2.0,356.5644459,5.339597363,-99999.0,'11133222,11111222,99999999' 
TABS,ioos:station:wmo:42051:1,2013-10-01T22:30:00Z,29.6350,-93.6417,2.0,359.5694242,10.64030075,-99999.0,'11111222,11144222,99999999' 
TABS,ioos:station:wmo:42051:1,2013-10-01T23:00:00Z,29.6350,-93.6417,2.0,243.8115296,2.039338128,-99999.0,'11133222,11111222,99999999' 
TABS,ioos:station:wmo:42051:1,2013-10-01T23:30:00Z,29.6350,-93.6417,2.0,30.49536587,5.872307894,-99999.0,'11133222,11111222,99999999' 
TABS,ioos:station:wmo:42051:1,2013-10-02T00:00:00Z,29.6350,-93.6417,2.0,28.79414444,2.989648809,-99999.0,'11133222,11111222,99999999' 
TABS,ioos:station:wmo:42051:1,2013-10-02T00:30:00Z,29.6350,-93.6417,2.0,324.3672576,9.080115638,-99999.0,'11133222,11111222,99999999' 
TABS,ioos:station:wmo:42051:1,2013-10-02T01:00:00Z,29.6350,-93.6417,2.0,12.9369663,5.940791193,-99999.0,'11133222,11111222,99999999' 
TABS,ioos:station:wmo:42051:1,2013-10-02T01:30:00Z,29.6350,-93.6417,2.0,71.50317538,17.55697582,-99999.0,'11111222,11111222,99999999' 
TABS,ioos:station:wmo:42051:1,2013-10-02T02:00:00Z,29.6350,-93.6417,2.0,338.5028398,16.10001242,-99999.0,'11111222,11111222,99999999' 
TABS,ioos:station:wmo:42051:1,2013-10-02T02:30:00Z,29.6350,-93.6417,2.0,324.2464068,4.62087654,-99999.0,'11133222,11111222,99999999' 
TABS,ioos:station:wmo:42051:1,2013-10-02T03:00:00Z,29.6350,-93.6417,2.0,302.7123154,13.32306646,-99999.0,'11111222,11111222,99999999' 
TABS,ioos:station:wmo:42051:1,2013-10-02T03:30:00Z,29.6350,-93.6417,2.0,358.9218315,12.75225862,-99999.0,'11111222,11111222,99999999' 
TABS,ioos:station:wmo:42051:1,2013-10-02T04:00:00Z,29.6350,-93.6417,2.0,322.1951242,5.758767229,-99999.0,'11133222,11111222,99999999' 
TABS,ioos:station:wmo:42051:1,2013-10-02T04:30:00Z,29.6350,-93.6417,2.0,313.4017823,6.083485843,-99999.0,'11133222,11111222,99999999' 
TABS,ioos:station:wmo:42051:1,2013-10-02T05:00:00Z,29.6350,-93.6417,2.0,41.95827019,8.794657469,-99999.0,'11133222,11111222,99999999' 
TABS,ioos:station:wmo:42051:1,2013-10-02T05:30:00Z,29.6350,-93.6417,2.0,357.5090488,15.41456779,-99999.0,'11111222,11111222,99999999' 
TABS,ioos:station:wmo:42051:1,2013-10-02T06:00:00Z,29.6350,-93.6417,2.0,1.968878488,18.92116804,-99999.0,'11111222,11111222,99999999' 
TABS,ioos:station:wmo:42051:1,2013-10-02T06:30:00Z,29.6350,-93.6417,2.0,4.842321823,10.30678417,-99999.0,'11111222,11111222,99999999' 
TABS,ioos:station:wmo:42051:1,2013-10-02T07:00:00Z,29.6350,-93.6417,2.0,21.16929973,4.375248564,-99999.0,'11133222,11111222,99999999' 
TABS,ioos:station:wmo:42051:1,2013-10-02T07:30:00Z,29.6350,-93.6417,2.0,201.2760814,3.444793172,-99999.0,'11133222,11111222,99999999' 
TABS,ioos:station:wmo:42051:1,2013-10-02T08:00:00Z,29.6350,-93.6417,2.0,42.01865098,1.359485197,-99999.0,'11133222,11111222,99999999' 
TABS,ioos:station:wmo:42051:1,2013-10-02T08:30:00Z,29.6350,-93.6417,2.0,56.21699893,3.416957711,-99999.0,'11133222,11111222,99999999' 
TABS,ioos:station:wmo:42051:1,2013-10-02T09:00:00Z,29.6350,-93.6417,2.0,328.2295988,6.210579683,-99999.0,'11133222,11111222,99999999' 
TABS,ioos:station:wmo:42051:1,2013-10-02T09:30:00Z,29.6350,-93.6417,2.0,330.0255021,5.564242985,-99999.0,'11133222,11111222,99999999' 
TABS,ioos:station:wmo:42051:1,2013-10-02T10:00:00Z,29.6350,-93.6417,2.0,245.8499498,4.350781539,-99999.0,'11133222,11111222,99999999' 
TABS,ioos:station:wmo:42051:1,2013-10-02T10:30:00Z,29.6350,-93.6417,2.0,41.97318991,12.05177165,-99999.0,'11111222,11111222,99999999' 
TABS,ioos:station:wmo:42051:1,2013-10-02T11:00:00Z,29.6350,-93.6417,2.0,217.1195562,8.252078526,-99999.0,'11133222,11111222,99999999' 
TABS,ioos:station:wmo:42051:1,2013-10-02T11:30:00Z,29.6350,-93.6417,2.0,331.2173327,9.013634117,-99999.0,'11133222,11111222,99999999' 
TABS,ioos:station:wmo:42051:1,2013-10-02T12:00:00Z,29.6350,-93.6417,2.0,209.2088801,5.040991966,-99999.0,'11133222,11111222,99999999' 
TABS,ioos:station:wmo:42051:1,2013-10-02T12:30:00Z,29.6350,-93.6417,2.0,140.9804803,2.986101137,-99999.0,'11133222,11111222,99999999' 
TABS,ioos:station:wmo:42051:1,2013-10-02T13:00:00Z,29.6350,-93.6417,2.0,160.0868722,9.072430766,-99999.0,'11133222,11111222,99999999' 
TABS,ioos:station:wmo:42051:1,2013-10-02T13:30:00Z,29.6350,-93.6417,2.0,331.7384498,4.984144861,-99999.0,'11133222,11111222,99999999' 
TABS,ioos:station:wmo:42051:1,2013-10-02T14:00:00Z,29.6350,-93.6417,2.0,229.0777184,11.43458351,-99999.0,'11111222,11111222,99999999' 
TABS,ioos:station:wmo:42051:1,2013-10-02T14:30:00Z,29.6350,-93.6417,2.0,237.312719,15.68377824,-99999.0,'11111222,11111222,99999999' 
TABS,ioos:station:wmo:42051:1,2013-10-02T15:00:00Z,29.6350,-93.6417,2.0,164.4757148,2.989046671,-99999.0,'11133222,11111222,99999999' 
TABS,ioos:station:wmo:42051:1,2013-10-02T15:30:00Z,29.6350,-93.6417,2.0,56.4212648,8.570134188,-99999.0,'11133222,11111222,99999999' 
TABS,ioos:station:wmo:42051:1,2013-10-02T16:00:00Z,29.6350,-93.6417,2.0,215.7394844,9.22779497,-99999.0,'11133222,11111222,99999999' 
TABS,ioos:station:wmo:42051:1,2013-10-02T16:30:00Z,29.6350,-93.6417,2.0,272.3863594,5.764997832,-99999.0,'11133222,11111222,99999999' 
TABS,ioos:station:wmo:42051:1,2013-10-02T17:00:00Z,29.6350,-93.6417,2.0,21.10499969,7.942776593,-99999.0,'11133222,11111222,99999999' 
TABS,ioos:station:wmo:42051:1,2013-10-02T17:30:00Z,29.6350,-93.6417,2.0,341.2533533,6.969763267,-99999.0,'11133222,11111222,99999999' 
TABS,ioos:station:wmo:42051:1,2013-10-02T18:00:00Z,29.6350,-93.6417,2.0,283.3701564,5.838227471,-99999.0,'11133222,11111222,99999999' 
TABS,ioos:station:wmo:42051:1,2013-10-02T18:30:00Z,29.6350,-93.6417,2.0,310.7940486,6.45914081,-99999.0,'11133222,11111222,99999999' 
TABS,ioos:station:wmo:42051:1,2013-10-02T19:00:00Z,29.6350,-93.6417,2.0,42.86038409,6.439161436,-99999.0,'11133222,11111222,99999999' 
TABS,ioos:station:wmo:42051:1,2013-10-02T19:30:00Z,29.6350,-93.6417,2.0,324.6093661,6.354116776,-99999.0,'11133222,11111222,99999999' 
TABS,ioos:station:wmo:42051:1,2013-10-02T20:00:00Z,29.6350,-93.6417,2.0,289.39303,7.378624533,-99999.0,'11133222,11111222,99999999' 
TABS,ioos:station:wmo:42051:1,2013-10-02T20:30:00Z,29.6350,-93.6417,2.0,205.4009188,1.981565038,-99999.0,'11133222,11111222,99999999' 
TABS,ioos:station:wmo:42051:1,2013-10-02T21:00:00Z,29.6350,-93.6417,2.0,314.1294392,13.02641163,-99999.0,'11111222,11111222,99999999' 
TABS,ioos:station:wmo:42051:1,2013-10-02T21:30:00Z,29.6350,-93.6417,2.0,280.2467016,6.127723884,-99999.0,'11133222,11111222,99999999' 
TABS,ioos:station:wmo:42051:1,2013-10-02T22:00:00Z,29.6350,-93.6417,2.0,309.6578888,18.83428788,-99999.0,'11111222,11111222,99999999' 
TABS,ioos:station:wmo:42051:1,2013-10-02T22:30:00Z,29.6350,-93.6417,2.0,291.7526969,13.00610626,-99999.0,'11111222,11111222,99999999' 
TABS,ioos:station:wmo:42051:1,2013-10-02T23:00:00Z,29.6350,-93.6417,2.0,310.2046047,10.48775476,-99999.0,'11111222,11111222,99999999' 
TABS,ioos:station:wmo:42051:1,2013-10-02T23:30:00Z,29.6350,-93.6417,2.0,247.0892276,11.22552894,-99999.0,'11111222,11111222,99999999' 
TABS,ioos:station:wmo:42051:1,2013-10-03T00:00:00Z,29.6350,-93.6417,2.0,273.3481619,3.596136816,-99999.0,'11133222,11111222,99999999' 
TABS,ioos:station:wmo:42051:1,2013-10-03T00:30:00Z,29.6350,-93.6417,2.0,317.8915785,1.401855913,-99999.0,'11133222,11111222,99999999' 
TABS,ioos:station:wmo:42051:1,2013-10-03T01:00:00Z,29.6350,-93.6417,2.0,242.9913057,11.56081745,-99999.0,'11111222,11111222,99999999' 
TABS,ioos:station:wmo:42051:1,2013-10-03T01:30:00Z,29.6350,-93.6417,2.0,130.3231196,17.43165225,-99999.0,'11111222,11111222,99999999' 
TABS,ioos:station:wmo:42051:1,2013-10-03T02:00:00Z,29.6350,-93.6417,2.0,204.9236702,4.840836705,-99999.0,'11133222,11111222,99999999' 
TABS,ioos:station:wmo:42051:1,2013-10-03T02:30:00Z,29.6350,-93.6417,2.0,198.0415311,5.069250438,-99999.0,'11133222,11111222,99999999' 
TABS,ioos:station:wmo:42051:1,2013-10-03T03:00:00Z,29.6350,-93.6417,2.0,194.9416291,10.58800264,-99999.0,'11111222,11111222,99999999' 
TABS,ioos:station:wmo:42051:1,2013-10-03T03:30:00Z,29.6350,-93.6417,2.0,164.0752607,11.33499449,-99999.0,'11111222,11111222,99999999' 
TABS,ioos:station:wmo:42051:1,2013-10-03T04:00:00Z,29.6350,-93.6417,2.0,336.4180696,7.648771143,-99999.0,'11133222,11111222,99999999' 
TABS,ioos:station:wmo:42051:1,2013-10-03T04:30:00Z,29.6350,-93.6417,2.0,207.624655,9.187339114,-99999.0,'11133222,11111222,99999999' 
TABS,ioos:station:wmo:42051:1,2013-10-03T05:00:00Z,29.6350,-93.6417,2.0,191.0395669,12.06323754,-99999.0,'11111222,11111222,99999999' 
TABS,ioos:station:wmo:42051:1,2013-10-03T05:30:00Z,29.6350,-93.6417,2.0,192.0212464,13.10745208,-99999.0,'11111222,11111222,99999999' 
TABS,ioos:station:wmo:42051:1,2013-10-03T06:00:00Z,29.6350,-93.6417,2.0,185.8126959,7.800108974,-99999.0,'11133222,11111222,99999999' 
TABS,ioos:station:wmo:42051:1,2013-10-03T06:30:00Z,29.6350,-93.6417,2.0,211.8793118,11.58792475,-99999.0,'11111222,11111222,99999999' 
TABS,ioos:station:wmo:42051:1,2013-10-03T07:00:00Z,29.6350,-93.6417,2.0,100.0829343,5.312042922,-99999.0,'11133222,11111222,99999999' 
TABS,ioos:station:wmo:42051:1,2013-10-03T07:30:00Z,29.6350,-93.6417,2.0,143.4462495,6.88410488,-99999.0,'11133222,11111222,99999999' 
TABS,ioos:station:wmo:42051:1,2013-10-03T08:00:00Z,29.6350,-93.6417,2.0,129.6514348,8.572100093,-99999.0,'11133222,11111222,99999999' 
TABS,ioos:station:wmo:42051:1,2013-10-03T08:30:00Z,29.6350,-93.6417,2.0,135.7067277,20.63494609,-99999.0,'11111222,11111222,99999999' 
TABS,ioos:station:wmo:42051:1,2013-10-03T09:00:00Z,29.6350,-93.6417,2.0,227.8187837,7.476095237,-99999.0,'11133222,11111222,99999999' 
TABS,ioos:station:wmo:42051:1,2013-10-03T09:30:00Z,29.6350,-93.6417,2.0,222.1272825,6.067528327,-99999.0,'11133222,11111222,99999999' 
TABS,ioos:station:wmo:42051:1,2013-10-03T10:00:00Z,29.6350,-93.6417,2.0,275.1668111,5.552557969,-99999.0,'11133222,11111222,99999999' 
TABS,ioos:station:wmo:42051:1,2013-10-03T10:30:00Z,29.6350,-93.6417,2.0,59.985506,2.898723857,-99999.0,'11133222,11111222,99999999' 
TABS,ioos:station:wmo:42051:1,2013-10-03T11:00:00Z,29.6350,-93.6417,2.0,172.5911504,3.257192042,-99999.0,'11133222,11111222,99999999' 
TABS,ioos:station:wmo:42051:1,2013-10-03T11:30:00Z,29.6350,-93.6417,2.0,230.3696353,13.37351487,-99999.0,'11111222,11111222,99999999' 
TABS,ioos:station:wmo:42051:1,2013-10-03T12:00:00Z,29.6350,-93.6417,2.0,247.8023494,6.987882369,-99999.0,'11133222,11111222,99999999' 
TABS,ioos:station:wmo:42051:1,2013-10-03T12:30:00Z,29.6350,-93.6417,2.0,168.973951,9.097939327,-99999.0,'11133222,11111222,99999999' 
TABS,ioos:station:wmo:42051:1,2013-10-03T13:00:00Z,29.6350,-93.6417,2.0,22.2969384,10.09477588,-99999.0,'11111222,11111222,99999999' 
TABS,ioos:station:wmo:42051:1,2013-10-03T13:30:00Z,29.6350,-93.6417,2.0,307.260774,4.988115877,-99999.0,'11133222,11111222,99999999' 
TABS,ioos:station:wmo:42051:1,2013-10-03T14:00:00Z,29.6350,-93.6417,2.0,194.6380338,6.924774365,-99999.0,'11133222,11111222,99999999' 
TABS,ioos:station:wmo:42051:1,2013-10-03T14:30:00Z,29.6350,-93.6417,2.0,67.24004397,3.773857443,-99999.0,'11133222,11111222,99999999' 
TABS,ioos:station:wmo:42051:1,2013-10-03T15:00:00Z,29.6350,-93.6417,2.0,89.94640259,10.69000468,-99999.0,'11111222,11111222,99999999' 
TABS,ioos:station:wmo:42051:1,2013-10-03T15:30:00Z,29.6350,-93.6417,2.0,120.7090385,6.55988567,-99999.0,'11133222,11111222,99999999' 
TABS,ioos:station:wmo:42051:1,2013-10-03T16:00:00Z,29.6350,-93.6417,2.0,253.4952563,5.068846023,-99999.0,'11133222,11111222,99999999' 
TABS,ioos:station:wmo:42051:1,2013-10-03T16:30:00Z,29.6350,-93.6417,2.0,70.92880956,6.549480895,-99999.0,'11133222,11111222,99999999' 
TABS,ioos:station:wmo:42051:1,2013-10-03T17:00:00Z,29.6350,-93.6417,2.0,209.3392143,6.836965701,-99999.0,'11133222,11111222,99999999' 
TABS,ioos:station:wmo:42051:1,2013-10-03T17:30:00Z,29.6350,-93.6417,2.0,253.0525374,2.435775031,-99999.0,'11133222,11111222,99999999' 
TABS,ioos:station:wmo:42051:1,2013-10-03T18:00:00Z,29.6350,-93.6417,2.0,235.4815267,3.070586263,-99999.0,'11133222,11111222,99999999' 
TABS,ioos:station:wmo:42051:1,2013-10-03T18:30:00Z,29.6350,-93.6417,2.0,233.7098439,2.568131617,-99999.0,'11133222,11111222,99999999' 
TABS,ioos:station:wmo:42051:1,2013-10-03T19:00:00Z,29.6350,-93.6417,2.0,128.5783783,11.00089087,-99999.0,'11111222,11111222,99999999' 
TABS,ioos:station:wmo:42051:1,2013-10-03T19:30:00Z,29.6350,-93.6417,2.0,36.27674499,4.05621745,-99999.0,'11133222,11111222,99999999' 
TABS,ioos:station:wmo:42051:1,2013-10-03T20:00:00Z,29.6350,-93.6417,2.0,133.1047744,11.54629811,-99999.0,'11111222,11111222,99999999' 
TABS,ioos:station:wmo:42051:1,2013-10-03T20:30:00Z,29.6350,-93.6417,2.0,14.0364211,11.2148473,-99999.0,'11111222,11111222,99999999' 
TABS,ioos:station:wmo:42051:1,2013-10-03T21:00:00Z,29.6350,-93.6417,2.0,124.6158984,1.373062271,-99999.0,'11133222,11111222,99999999' 
TABS,ioos:station:wmo:42051:1,2013-10-03T21:30:00Z,29.6350,-93.6417,2.0,168.3520024,2.327939003,-99999.0,'11133222,11111222,99999999' 
TABS,ioos:station:wmo:42051:1,2013-10-03T22:00:00Z,29.6350,-93.6417,2.0,285.2387851,6.01135592,-99999.0,'11133222,11111222,99999999' 
TABS,ioos:station:wmo:42051:1,2013-10-03T22:30:00Z,29.6350,-93.6417,2.0,357.7397138,9.127102498,-99999.0,'11133222,11111222,99999999' 
TABS,ioos:station:wmo:42051:1,2013-10-03T23:00:00Z,29.6350,-93.6417,2.0,193.2250024,32.21438343,-99999.0,'11111222,11111222,99999999' 
TABS,ioos:station:wmo:42051:1,2013-10-03T23:30:00Z,29.6350,-93.6417,2.0,17.91554913,19.18000261,-99999.0,'11111222,11111222,99999999' 
TABS,ioos:station:wmo:42051:1,2013-10-04T00:00:00Z,29.6350,-93.6417,2.0,356.0984578,143.4324496,-99999.0,'11111222,11111222,99999999' 
TABS,ioos:station:wmo:42051:1,2013-10-04T00:30:00Z,29.6350,-93.6417,2.0,2.758548194,117.406028,-99999.0,'11111222,11111222,99999999' 
TABS,ioos:station:wmo:42051:1,2013-10-04T01:00:00Z,29.6350,-93.6417,2.0,8.884753915,126.8419114,-99999.0,'11111222,11111222,99999999' 
TABS,ioos:station:wmo:42051:1,2013-10-04T01:30:00Z,29.6350,-93.6417,2.0,26.75263795,97.05928601,-99999.0,'11111222,11111222,99999999' 
TABS,ioos:station:wmo:42051:1,2013-10-04T02:00:00Z,29.6350,-93.6417,2.0,353.3125736,126.7423844,-99999.0,'11111222,11111222,99999999' 
TABS,ioos:station:wmo:42051:1,2013-10-04T02:30:00Z,29.6350,-93.6417,2.0,0.417943011,131.6734996,-99999.0,'11111222,11111222,99999999' 
TABS,ioos:station:wmo:42051:1,2013-10-04T03:00:00Z,29.6350,-93.6417,2.0,359.2510327,130.7811798,-99999.0,'11111222,11144222,99999999' 
TABS,ioos:station:wmo:42051:1,2013-10-04T03:30:00Z,29.6350,-93.6417,2.0,15.22278824,117.4924653,-99999.0,'11111222,11111222,99999999' 
TABS,ioos:station:wmo:42051:1,2013-10-04T04:00:00Z,29.6350,-93.6417,2.0,12.86475309,108.6471468,-99999.0,'11111222,11111222,99999999' 
TABS,ioos:station:wmo:42051:1,2013-10-04T04:30:00Z,29.6350,-93.6417,2.0,297.528946,6.382640519,-99999.0,'11133222,11111222,99999999' 
TABS,ioos:station:wmo:42051:1,2013-10-04T05:00:00Z,29.6350,-93.6417,2.0,285.0822155,6.379749211,-99999.0,'11133222,11111222,99999999' 
TABS,ioos:station:wmo:42051:1,2013-10-04T05:30:00Z,29.6350,-93.6417,2.0,273.5039444,6.872845117,-99999.0,'11133222,11111222,99999999' 
TABS,ioos:station:wmo:42051:1,2013-10-04T06:00:00Z,29.6350,-93.6417,2.0,275.1438743,8.14278822,-99999.0,'11133222,11111222,99999999' 
TABS,ioos:station:wmo:42051:1,2013-10-04T06:30:00Z,29.6350,-93.6417,2.0,275.7229685,9.527481304,-99999.0,'11133222,11111222,99999999' 
TABS,ioos:station:wmo:42051:1,2013-10-04T07:00:00Z,29.6350,-93.6417,2.0,275.6567808,11.56631748,-99999.0,'11111222,11111222,99999999' 
TABS,ioos:station:wmo:42051:1,2013-10-04T07:30:00Z,29.6350,-93.6417,2.0,282.12895,9.471414889,-99999.0,'11133222,11111222,99999999' 
TABS,ioos:station:wmo:42051:1,2013-10-04T08:00:00Z,29.6350,-93.6417,2.0,259.7317182,9.705431469,-99999.0,'11133222,11111222,99999999' 
TABS,ioos:station:wmo:42051:1,2013-10-04T08:30:00Z,29.6350,-93.6417,2.0,267.0482338,10.29365338,-99999.0,'11111222,11111222,99999999' 
TABS,ioos:station:wmo:42051:1,2013-10-04T09:00:00Z,29.6350,-93.6417,2.0,211.2734815,6.973234544,-99999.0,'11133222,11111222,99999999' 
TABS,ioos:station:wmo:42051:1,2013-10-04T09:30:00Z,29.6350,-93.6417,2.0,258.9836771,12.6123947,-99999.0,'11111222,11111222,99999999' 
TABS,ioos:station:wmo:42051:1,2013-10-04T10:00:00Z,29.6350,-93.6417,2.0,250.4160424,12.62002377,-99999.0,'11111222,11111222,99999999' 
TABS,ioos:station:wmo:42051:1,2013-10-04T10:30:00Z,29.6350,-93.6417,2.0,250.8476478,15.66715035,-99999.0,'11111222,11111222,99999999' 
TABS,ioos:station:wmo:42051:1,2013-10-04T11:00:00Z,29.6350,-93.6417,2.0,248.7599246,10.98626415,-99999.0,'11111222,11111222,99999999' 
TABS,ioos:station:wmo:42051:1,2013-10-04T11:30:00Z,29.6350,-93.6417,2.0,263.9281082,12.48000401,-99999.0,'11111222,11111222,99999999' 
TABS,ioos:station:wmo:42051:1,2013-10-04T12:00:00Z,29.6350,-93.6417,2.0,327.4384244,28.59479148,-99999.0,'11111222,11111222,99999999' 
TABS,ioos:station:wmo:42051:1,2013-10-04T12:30:00Z,29.6350,-93.6417,2.0,327.2928247,40.91793006,-99999.0,'11111222,11111222,99999999' 
TABS,ioos:station:wmo:42051:1,2013-10-04T13:00:00Z,29.6350,-93.6417,2.0,329.5499859,41.91079217,-99999.0,'11111222,11111222,99999999' 
TABS,ioos:station:wmo:42051:1,2013-10-04T13:30:00Z,29.6350,-93.6417,2.0,332.2191605,48.46650906,-99999.0,'11111222,11111222,99999999' 
TABS,ioos:station:wmo:42051:1,2013-10-04T14:00:00Z,29.6350,-93.6417,2.0,330.7074401,49.52240907,-99999.0,'11111222,11111222,99999999' 
TABS,ioos:station:wmo:42051:1,2013-10-04T14:30:00Z,29.6350,-93.6417,2.0,329.2111179,50.08982432,-99999.0,'11111222,11111222,99999999' 
TABS,ioos:station:wmo:42051:1,2013-10-04T15:00:00Z,29.6350,-93.6417,2.0,329.4311077,51.29987329,-99999.0,'11111222,11111222,99999999' 
TABS,ioos:station:wmo:42051:1,2013-10-04T15:30:00Z,29.6350,-93.6417,2.0,331.5700793,49.46566991,-99999.0,'11111222,11111222,99999999' 
TABS,ioos:station:wmo:42051:1,2013-10-04T16:00:00Z,29.6350,-93.6417,2.0,322.0480784,49.44682194,-99999.0,'11111222,11111222,99999999' 